Weather History for Laramie, WY

Change the Weather History Date:

Monday, August 5, 2013

  Actual Average Record
Temperature  
Mean Temperature 65 °F 64 °F  
Max Temperature 79 °F 80 °F 94 °F (1979)
Min Temperature 50 °F 49 °F 36 °F (1980)
Degree Days  
Heating Degree Days 0 2  
Month to date heating degree days 0 10  
Since 1 June heating degree days 125 320  
Since 1 July heating degree days 22 79  
Cooling Degree Days 0 1  
Month to date cooling degree days 10 5  
Year to date cooling degree days 104 52  
Since 1 June cooling degree days 104 52  
Growing Degree Days 16 (Base 50)    
Moisture  
Dew Point 41 °F    
Average Humidity 50    
Maximum Humidity 77    
Minimum Humidity 23    
Precipitation  
Precipitation 0.01 in 0.05 in 0.63 in (1954)
Month to date precipitation 0.12 0.24  
Year to date precipitation 5.42 7.16  
Sea Level Pressure  
Sea Level Pressure 29.98 in    
Wind  
Wind Speed 11 mph (SSW)    
Max Wind Speed 35 mph    
Max Gust Speed 41 mph    
Visibility 10 miles    
Events Rain , Thunderstorm    
T = Trace of Precipitation, MM = Missing Value Source: NWS Daily Summary

Daily Weather History Graph

Daily Weather History Graph

Search for Another Location

Airport:

Trip Planner

Search our weather history database for the weather conditions in past years. The results will help you decide how hot, cold, wet, or windy it might be!

Date:

Astronomy

Aug. 05, 2013 Rise Set
Actual Time 6:02 AM MDT 8:14 PM MDT
Civil Twilight 5:31 AM MDT 8:45 PM MDT
Nautical Twilight 4:53 AM MDT 9:22 PM MDT
Astronomical Twilight 4:12 AM MDT 10:03 PM MDT
Moon 4:59 AM MDT (8/5) 7:16 PM MDT (8/5)
Length of Visible Light 15h 13m
Length of Day
14h 12m
Waning Crescent, 1% of the Moon is Illuminated
Aug 5
Waning Crescent
Aug 6
New
Aug 14
First Quarter
Aug 20
Full
Aug 28
Last Quarter

Hourly Weather History & Observations

Time (MDT) Temp. Dew Point Humidity Pressure Visibility Wind Dir Wind Speed Gust Speed Precip Events Conditions
12:53 AM 57.0 °F 41.0 °F 55% 29.89 in 10.0 mi South 12.7 mph - N/A   Clear
1:53 AM 54.0 °F 41.0 °F 62% 29.92 in 10.0 mi SSE 11.5 mph - N/A   Clear
2:53 AM 55.9 °F 41.0 °F 57% 29.91 in 10.0 mi South 11.5 mph - N/A   Clear
3:53 AM 54.0 °F 41.0 °F 62% 29.90 in 10.0 mi South 10.4 mph - N/A   Clear
4:53 AM 53.1 °F 41.0 °F 64% 29.91 in 10.0 mi SSW 8.1 mph - N/A   Clear
5:53 AM 52.0 °F 41.0 °F 66% 29.97 in 10.0 mi ESE 3.5 mph - N/A   Clear
6:53 AM 53.1 °F 41.0 °F 64% 29.96 in 9.0 mi Calm Calm - N/A   Clear
7:53 AM 59.0 °F 43.0 °F 55% 29.97 in 10.0 mi West 4.6 mph - N/A   Clear
8:53 AM 61.0 °F 44.1 °F 54% 29.99 in 10.0 mi NNE 5.8 mph - N/A   Clear
9:53 AM 69.1 °F 44.1 °F 40% 29.96 in 10.0 mi NE 6.9 mph - N/A   Clear
10:53 AM 72.0 °F 43.0 °F 35% 29.95 in 10.0 mi Calm Calm - N/A   Clear
11:53 AM 77.0 °F 41.0 °F 28% 29.92 in 10.0 mi Variable 4.6 mph - N/A   Clear
12:53 PM 79.0 °F 37.0 °F 22% 29.91 in 10.0 mi NNW 11.5 mph 24.2 mph N/A   Scattered Clouds
1:34 PM 75.2 °F 39.2 °F 27% 30.24 in 10.0 mi Variable 3.5 mph - 0.00 in Rain , Thunderstorm Light Rain
1:49 PM 75.2 °F 35.6 °F 24% 30.25 in 10.0 mi North 11.5 mph 33.4 mph 0.00 in   Mostly Cloudy
1:53 PM 75.0 °F 36.0 °F 24% 29.93 in 10.0 mi NNW 11.5 mph - 0.00 in   Mostly Cloudy
2:02 PM 73.4 °F 37.4 °F 27% 30.27 in 10.0 mi NW 21.9 mph 27.6 mph N/A Thunderstorm Mostly Cloudy
2:29 PM 69.8 °F 42.8 °F 38% 30.28 in 6.0 mi SSW 8.1 mph - 0.01 in Rain Light Rain
2:53 PM 68.0 °F 45.0 °F 43% 29.98 in 10.0 mi South 10.4 mph - 0.01 in   Overcast
3:25 PM 71.6 °F 41.0 °F 33% 30.25 in 10.0 mi WSW 5.8 mph - 0.00 in   Overcast
3:53 PM 73.0 °F 37.0 °F 27% 29.91 in 10.0 mi WSW 5.8 mph - 0.00 in   Scattered Clouds
4:53 PM 73.0 °F 39.0 °F 29% 29.90 in 10.0 mi SSW 13.8 mph - N/A   Partly Cloudy
5:53 PM 71.1 °F 39.0 °F 31% 29.92 in 10.0 mi SW 21.9 mph 29.9 mph N/A   Overcast
6:53 PM 63.0 °F 44.1 °F 50% 29.95 in 10.0 mi SSW 32.2 mph 39.1 mph N/A   Overcast
7:53 PM 61.0 °F 45.0 °F 56% 29.92 in 10.0 mi SSW 21.9 mph - N/A   Clear
8:53 PM 57.9 °F 45.0 °F 62% 29.92 in 10.0 mi South 9.2 mph - N/A   Clear
9:53 PM 57.9 °F 44.1 °F 60% 29.88 in 10.0 mi SSW 13.8 mph - N/A   Clear
10:53 PM 52.0 °F 44.1 °F 74% 29.91 in 10.0 mi SSE 9.2 mph - N/A   Clear
11:53 PM 59.0 °F 45.0 °F 60% 29.84 in 10.0 mi South 16.1 mph - N/A   Clear